Weather in Vyazovka

Russia / Volgograd Oblast     50°53′11″N   43°56′51″E
temp.,
°C
wind,
m/s
gust,
m/s
humid.,
%
clouds,
%
prec.,
mm/h
press.,
hPa
HPBL,
m
28 september, tue
tue2800:00+9nnw3783100 0.0 1016361
03:00+8n4788100 0.1 1017375
06:00+8n368998 0.1 1018379
09:00+9nne5679100 0.1 1020750
12:00+7ene5781100 0.2 1022656
15:00+6ne4684100 0.3 1024724
18:00+7ne3779100 0.0 1026674
21:00+7nne4773100 0.1 1027336
29 september, wed
wed2900:00+6nne487173 0.0 1028321
03:00+3nne37815 0.0 1029151
06:00+2nne388553 0.0 1030165
09:00+7nne576014 0.0 1030603
12:00+10ne56435 0.0 10301486
15:00+11nne55389 0.0 10291865
18:00+8nne48526 0.0 1030146
21:00+5n47625 0.0 1031134
30 september, thu
thu3000:00+4nne36705 0.0 103191
03:00+3nne33735 0.0 103140
06:00+3n347742 0.0 103266
09:00+8nne355771 0.0 1032464
12:00+11nne33435 0.0 10321479
15:00+12nne334070 0.0 10321770
18:00+9nne335219 0.0 103232
21:00+7nne33617 0.0 103334
1 october, fri
fri100:00+6nne336448 0.0 103432
03:00+8nnw2256100 0.0 103415
06:00+8nnw2461100 0.0 103484
09:00+10nnw2358100 0.0 1035271
12:00+11nnw335498 0.0 1035749
15:00+11nnw3358100 0.0 1034424
18:00+9w226891 0.0 103429
21:00+10nw2370100 0.0 103460
2 october, sat
sat200:00+10nnw2274100 0.0 103446
03:00+10nne1180100 0.0 103316
06:00+10nw0083100 0.0 103310
09:00+11ne0176100 0.0 1033128
12:00+14e235580 0.0 1033874
15:00+16ene2348100 0.0 10321402
18:00+13ene2365100 0.0 103370
21:00+12ene2273100 0.0 103361